Miscellaneous Local Product
Issued by NWS Hastings, NE

Home | Current Version | Previous Version | Graphics & Text | Print | Product List | Glossary On
Versions: 1 2 3 4 5 6 7 8 9 10 11 12 13 14 15 16 17 18 19 20 21 22 23 24 25 26 27 28 29 30 31 32 33 34 35 36 37 38 39 40 41 42 43 44 45 46 47 48 49 50
701
AXUS43 KGID 201102
MISGRI

GID CWA HOURLY WEATHER ROUNDUP
NATIONAL WEATHER SERVICE HASTINGS NE
600 AM CDT FRI OCT 20 2017

NOTE: "FAIR" INDICATES FEW OR NO CLOUDS BELOW 12,000 FEET WITH NO
SIGNIFICANT WEATHER AND/OR OBSTRUCTIONS TO VISIBILITY.

...SOUTH CENTRAL NEBRASKA...

CITY           SKY/WX    TMP DP  RH WIND       PRES   REMARKS
GRAND ISLAND   FAIR      55  50  83 S14       29.87F
HASTINGS       FAIR      57  49  74 S13G22    29.89F
KEARNEY        FAIR      57  48  72 S16       29.86S
ORD            PTCLDY    55  47  74 S8        29.81F
YORK             N/A     55  52  88 S13G20    29.91S
AURORA         FAIR      56  50  80 S15G21    29.89S
LEXINGTON      MOCLDY    57  47  67 S14G21    29.83S
HOLDREGE       FAIR      56  48  74 S13       29.85S
HEBRON         FAIR      58  52  79 S9        29.93F

...NEBRASKA PANHANDLE...

CITY           SKY/WX    TMP DP  RH WIND       PRES   REMARKS
CHADRON        CLEAR     49  34  56 CALM      29.65F
ALLIANCE       CLEAR     46  43  89 S13       29.72S
SCOTTSBLUFF    PTCLDY    42  32  67 E7        29.72S
SIDNEY         MOCLDY    41  38  89 SW3       29.75S

...WESTERN AND NORTH CENTRAL NEBRASKA...

CITY           SKY/WX    TMP DP  RH WIND       PRES   REMARKS
VALENTINE      CLEAR     57  44  62 S10       29.71F
AINSWORTH      CLEAR     54  46  74 S14       29.74F
ONEILL         CLEAR     56  48  75 S14       29.79F
BROKEN BOW     PTCLDY    54  46  74 S5        29.80F
IMPERIAL       PTCLDY    55  46  71 S17       29.77S
NORTH PLATTE   MOCLDY    57  47  69 S14       29.77F
MCCOOK         MOCLDY    57  47  69 SW6       29.80F

...EASTERN NEBRASKA...

CITY           SKY/WX    TMP DP  RH WIND       PRES   REMARKS
NORFOLK        FAIR      57  49  74 S17       29.86S
SO SIOUX CITY  FAIR      49  48  97 SE10      29.90S
TEKAMAH        FAIR      52  48  86 SE6       29.93S
COLUMBUS       FAIR      57  50  77 S16G22    29.90S
ALBION         FAIR      55  49  78 SE9       29.86S
OMAHA EPPLEY   MOCLDY    57  51  80 S12       29.97S
OFFUTT AFB     FAIR      55  51  88 SE9       29.97S
MILLARD        FAIR      57  53  85 SE7       29.97S
LINCOLN        FAIR      56  51  84 S10       29.94F
NEBRASKA CITY  FAIR      52  52 100 S7        29.99S
BEATRICE       FAIR      56  52  89 SE9       29.97S
FALLS CITY     FAIR      57  52  83 S10       30.01S

...NORTHERN KANSAS...

CITY           SKY/WX    TMP DP  RH WIND       PRES   REMARKS
GOODLAND       CLOUDY    53  48  83 S17       29.79F
HILL CITY      FAIR      58  48  69 S13G21    29.86F
NORTON         SUNNY     55  43  62 S14G20    29.83S
PHILLIPSBURG   CLEAR     59  46  63 SE6       29.87F
SMITH CENTER   CLEAR     54  46  76 SE6       29.90F
HAYS           FAIR      56  48  74 S10       29.90S
RUSSELL        FAIR      56  51  84 S14       29.90F
CONCORDIA      FAIR      61  52  72 S23G30    29.93F
SALINA         FAIR      61  53  75 S16G25    29.97S
TOPEKA         FAIR      60  54  80 S12       30.04R



USA.gov is the U.S. government's official web portal to all federal, state and local government web resources and services.